This is the latest recevied weather packets stored in our database for station/object W5MAI. If no packets are shown the sender has not sent any weather packets the latest 10 day(s).
| Time | Temp. | Humidity | Pressure | Rain* | Wind** | Luminosity | Snow |
|---|---|---|---|---|---|---|---|
| 1788450233 | 30° C | 70% | 1016 hPa | 0 mm | - | 700 W/m² | - |
| 1788449654 | 29.44° C | 72% | 1016 hPa | 0 mm | - | 295 W/m² | - |
| 1788449062 | 29.44° C | 73% | 1015.9 hPa | 0 mm | - | 570 W/m² | - |
| 1788447238 | 28.89° C | 76% | 1016 hPa | 0 mm | - | 475 W/m² | - |
| 1788446656 | 28.33° C | 77% | 1016 hPa | 0 mm | - | 446 W/m² | - |
| 1788445422 | 27.78° C | 80% | 1016.1 hPa | 0 mm | - | 158 W/m² | - |
| 1788444834 | 27.78° C | 80% | 1016.2 hPa | 0 mm | - | 316 W/m² | - |
| 1788444212 | 27.78° C | 80% | 1016.2 hPa | 0 mm | - | 206 W/m² | - |
| 1788443637 | 27.22° C | 81% | 1016.2 hPa | 0 mm | - | 246 W/m² | - |
| 1788443058 | 27.22° C | 82% | 1016.3 hPa | 0 mm | - | 204 W/m² | - |
| 1788442424 | 26.67° C | 82% | 1016.4 hPa | 0 mm | - | 109 W/m² | - |
| 1788441844 | 26.67° C | 83% | 1016.3 hPa | 0 mm | - | 81 W/m² | - |
| 1788441203 | 26.67° C | 83% | 1016.4 hPa | 0 mm | - | 60 W/m² | - |
| 1788440025 | 26.67° C | 84% | 1016.1 hPa | 0 mm | - | 33 W/m² | - |
| 1788439473 | 26.11° C | 84% | 1016 hPa | 0 mm | - | 19 W/m² | - |
| 1788438821 | 26.11° C | 85% | 1016 hPa | 0 mm | - | 12 W/m² | - |
| 1788438241 | 26.11° C | 85% | 1015.8 hPa | 0 mm | - | 7 W/m² | - |
| 1788437603 | 26.11° C | 85% | 1015.7 hPa | 0 mm | - | 0 W/m² | - |
| 1788436430 | 26.11° C | 86% | 1015.8 hPa | 0 mm | - | 0 W/m² | - |
| 1788435854 | 26.11° C | 86% | 1015.7 hPa | 0 mm | - | 0 W/m² | - |
| 1788435208 | 26.11° C | 86% | 1015.6 hPa | 0 mm | - | 0 W/m² | - |
| 1788434627 | 26.11° C | 86% | 1015.6 hPa | 0 mm | - | 0 W/m² | - |
| 1788434057 | 26.11° C | 86% | 1015.4 hPa | 0 mm | - | 0 W/m² | - |
| 1788433415 | 26.11° C | 85% | 1015.2 hPa | 0 mm | - | 0 W/m² | - |
| 1788432841 | 26.11° C | 86% | 1015.2 hPa | 0 mm | - | 0 W/m² | - |
* Rain latest hour (hover to see other rain measurements)
** Current wind speed in m/s (hover to see current wind gust speed)